Regional Weather Roundup
Issued by NWS Huntsville, AL

Home | Current Version | Previous Version | Text Only | Print | Product List | Glossary On
Versions: 1 2 3 4 5 6 7 8 9 10 11 12 13 14 15 16 17 18 19 20 21 22 23 24 25 26 27
000
ASUS44 KHUN 191610
RWRHUN

WEATHER ROUNDUP FOR THE TENNESSEE VALLEY
NATIONAL WEATHER SERVICE HUNTSVILLE AL
1000 AM CST THU JAN 19 2017

ALZ001>004-191700-
NORTHWEST ALABAMA

CITY           SKY/WX    TMP DP  RH WIND       PRES   REMARKS
COURTLAND HCN    N/A     63 N/A N/A S3          N/A
RUSSELLVILLE     N/A     63 N/A N/A MISG        N/A
SHOALS AIRPORT LGT RAIN  63  60  90 S6        29.96R
SHOALS TVA RES   N/A     61 N/A N/A MISG        N/A
$$

ALZ005>007-016-191700-
NORTH CENTRAL ALABAMA

CITY           SKY/WX    TMP DP  RH WIND       PRES   REMARKS
CULLMAN AG STN   N/A     63 N/A N/A CALM        N/A
DECATUR AP     CLOUDY    63  61  93 SE7       29.97R
HUNTSVILLE AP  CLOUDY    61  59  93 SE7       29.97R
MERIDIANVILLE  CLOUDY    61  54  77 SE6       29.97S
REDSTONE ARSN  CLOUDY    60  57  89 S8        29.96S
VINEMONT AP    FAIR      63  59  88 S8        30.00R
$$

ALZ008>010-191700-
NORTHEAST ALABAMA

CITY           SKY/WX    TMP DP  RH WIND       PRES   REMARKS
ALBERTVILLE    CLOUDY    61  61 100 SE6       29.99S
FORT PAYNE     MOSUNNY   64  50  59 SE3       30.00S
SCOTTSBORO AP  MOSUNNY   57  52  82 NE5       30.01F
SCOTTSBORO HCN   N/A     55 N/A N/A MISG        N/A
VALLEY HEAD      N/A     64 N/A N/A MISG        N/A
$$

TNZ076-096-097-191700-
SOUTHEASTERN MIDDLE TENNESSEE

CITY           SKY/WX    TMP DP  RH WIND       PRES   REMARKS
TULLAHOMA      MOSUNNY   57  54  88 SE6       29.99S
WINCHESTER     SUNNY     57  54  88 E9        30.00R
$$

...SURROUNDING SITES...

CITY           SKY/WX    TMP DP  RH WIND       PRES   REMARKS
ATLANTA        MOSUNNY   66  54  65 SE7       30.05F
ANNISTON       MOSUNNY   64  59  83 NE6       30.00F
BIRMINGHAM     CLOUDY    63  61  93 SE3       30.01S
CHATTANOOGA    CLOUDY    54  43  66 NE5       30.04F
CORINTH        LGT RAIN  61  61 100 SE8       29.92S
DALTON         PTSUNNY   57  48  72 CALM      30.04F
GADSDEN        CLOUDY    57  53  86 E7        30.02S
GOLDEN TRNGL   RAIN      64  61  88 S12       29.91R
HALEYVILLE     LGT RAIN  61  61 100 S8        29.98R FOG
JACKSON TN     LGT RAIN  56  56 100 SE6       29.88F FOG
MEMPHIS        LGT RAIN  64  63  96 S8        29.87R FOG
NASHVILLE      CLOUDY    51  48  89 E3        29.99S
OXFORD MS      LGT RAIN  59  59 100 S8        29.94R
ROME           MOSUNNY   59  46  62 SE3       30.03F
SAVANNAH       CLOUDY    61  61 100 S5        29.92R FOG
TUPELO         LGT RAIN  63  61  93 S7        29.94R FOG
TUSCALOOSA     LGT RAIN  64  63  96 S8        29.98R FOG
$$

...GULF COAST WEATHER...

CITY           SKY/WX    TMP DP  RH WIND       PRES   REMARKS
GULFPORT       FOG       68  68 100 S7        29.98S VSB 3/4
PASCAGOULA     CLOUDY    73  68  84 S10       30.00R
MOBILE         CLOUDY    74  68  81 S17       30.00S
GULF SHORES    PTSUNNY   71  71 100 S9        30.01S
PENSACOLA      CLOUDY    73  68  84 S12       30.01S HAZE
DESTIN         CLOUDY    71  68  90 SE8       30.03
PANAMA CITY    MOSUNNY   73  72  96 S10       30.04S
APPALACHICOLA  CLOUDY    68  68 100 SE8       30.06S
$$





USA.gov is the U.S. government's official web portal to all federal, state and local government web resources and services.